Home > Weather > Tyler > Past weeks

Flag for USA Past Weather in Tyler, Texas, USA — Yesterday and Last 2 Weeks

Now
90 °F

Sunny.


Feels Like: 98 °F
Forecast: 79 / 97 °F
Wind: 3 mph from North

Location: Tyler Pounds Field

Current Time: Jul 24, 2016 at 11:41:46 AM

Latest Report: Jul 24, 2016 at 10:53 AM


Visibility: 10 mi

Pressure: 29.97 "Hg

Humidity: 57%

Dew Point: 73 °F

Location of TylerLocation

Past Weather in Tyler — Graph

°F

Tyler Temperature Yesterday

Maximum temperature yesterday: 99 °F (at 2:53 PM)
Minimum temperature yesterday: 82 °F (at 5:53 AM)
Average temperature yesterday: 89 °F

High & Low Weather Summary for the Past Weeks

 TemperatureHumidityPressure
High100 °F (Jul 13, 4:53 PM)90% (Jul 13, 6:53 AM)30.21 "Hg (Jul 13, 6:53 AM)
Low75 °F (Jul 17, 5:53 AM)31% (Jul 16, 2:53 PM)29.84 "Hg (Jul 11, 6:53 PM)
Average87 °F60%30.00 "Hg
* Reported Jul 9 9:53 AM — Jul 24 9:53 AM, Tyler, Weather by CustomWeather, © 2016

Note: Actual official high and low records may vary slightly from our data, if they occured in-between our weather recording intervals... More about our weather records

Advertising

Tyler Weather History for the Previous 24 Hours

Scroll right to see more
 ConditionsComfort  
Time TempWeatherWind HumidityBarometerVisibility
9:53 AM
Sun, Jul 24
87 °FSunny.8 mph65%29.96 "Hg10 mi
8:53 AM86 °FSunny.12 mph65%29.96 "Hg10 mi
7:53 AM82 °FSunny.7 mph77%29.94 "Hg10 mi
6:53 AM79 °FClear.7 mph79%29.93 "Hg10 mi
5:53 AM78 °FClear.7 mph82%29.92 "Hg10 mi
4:53 AM79 °FClear.5 mph79%29.91 "Hg10 mi
3:53 AM80 °FClear.7 mph74%29.90 "Hg10 mi
2:53 AM80 °FClear.7 mph74%29.90 "Hg10 mi
1:53 AM80 °FClear.5 mph74%29.91 "Hg10 mi
12:53 AM81 °FClear.3 mph72%29.90 "Hg10 mi
11:53 PM
Sat, Jul 23
83 °FClear.6 mph65%29.89 "Hg10 mi
10:53 PM83 °FClear.10 mph68%29.90 "Hg10 mi
9:53 PM84 °FClear.13 mph63%29.92 "Hg10 mi
8:53 PM86 °FScattered clouds.14 mph61%29.93 "Hg10 mi
7:53 PM96 °FSunny.5 mph43%29.88 "Hg10 mi
6:53 PM97 °FSunny.7 mph42%29.85 "Hg10 mi
5:53 PM99 °FSunny.9 mph41%29.85 "Hg10 mi
4:53 PM99 °FSunny.10 mph37%29.87 "Hg10 mi
3:53 PM99 °FSunny.10 mph39%29.89 "Hg10 mi
2:53 PM99 °FSunny.10 mph39%29.91 "Hg10 mi
1:53 PM98 °FSunny.9 mph40%29.94 "Hg10 mi
12:53 PM95 °FSunny.6 mph46%29.96 "Hg10 mi
11:53 AM94 °FSunny.7 mph48%29.97 "Hg10 mi
Weather by CustomWeather, © 2016

See weather overviewHow to use our weather pages